Temperature
20 19 19 19 18 18 20 21 21 21 21 20 20 21 20 20 20 20 19 20 20 20 20 19 19 20 20 20 20 20 20 19 19 19 19 19 19 19 19 19 19 19 19 18 18 18 18 18 18
20 19 19 19 18 19 21 21 21 21 20 20 20 20 20 19 19 19 19 20 20 20 20 20 19 19 20 20 20 20 20 19 19 19 19 19 19 19 19 19 19 19 19 19 19 18 18 18 18
20 19 19 17 19 20 21 21 20 20 20 20 20 20 20 19 19 19 20 20 20 20 20 20 19 19 19 20 20 20 20 19 19 19 19 19 19 19 19 18 19 18 19 19 18 18 18 18 18
19 19 19 17 20 20 21 21 21 20 20 20 20 19 19 20 20 20 20 20 20 20 20 19 19 19 19 20 20 20 20 19 19 19 19 19 19 19 18 18 18 18 18 18 18 18 18 18 18
19 19 17 18 19 20 22 22 21 21 20 19 20 19 19 20 20 20 20 20 20 20 19 19 19 19 19 20 19 19 19 19 19 19 18 18 18 18 18 18 18 18 18 18 18 18 18 18 18
20 18 17 18 20 21 21 21 21 20 20 19 20 19 19 20 20 20 20 20 20 20 19 19 19 19 19 19 19 19 19 19 19 18 18 18 18 18 18 18 18 18 18 18 18 18 18 18 17
20 17 18 20 20 21 21 20 20 20 19 19 20 19 18 19 20 20 20 19 19 19 19 19 19 19 19 19 19 19 19 18 18 18 18 18 18 18 18 17 18 18 18 18 18 18 18 18 17
20 17 19 19 20 21 20 20 19 19 19 19 20 19 18 19 19 20 20 19 19 19 19 19 19 19 19 19 19 18 18 18 18 18 18 18 18 17 17 17 17 17 18 18 18 18 18 17 17
21 17 18 20 21 21 20 19 19 19 19 19 19 19 20 19 19 19 19 18 18 18 19 19 19 19 19 18 18 18 18 18 18 18 18 18 18 18 17 17 17 17 17 18 18 18 18 17 17
20 18 20 21 22 21 20 19 19 18 18 18 19 19 19 19 19 19 19 19 18 18 19 19 19 19 18 18 18 18 18 18 18 17 17 17 18 18 17 17 17 17 17 17 17 17 17 17 17
20 19 20 22 22 22 20 19 19 19 18 19 19 19 18 18 18 19 19 19 19 19 19 19 18 18 18 18 18 18 18 17 17 17 17 17 17 17 17 17 17 17 17 17 17 17 17 17 17
20 21 22 22 22 21 20 19 18 19 19 19 19 19 19 18 18 18 19 19 19 19 19 18 18 18 18 18 18 18 17 17 17 17 17 17 17 17 17 17 17 17 17 17 17 17 17 17 17
22 22 22 21 21 20 20 19 18 18 19 19 19 18 18 18 18 19 19 19 19 19 18 18 18 18 18 18 18 17 17 17 17 17 17 17 17 17 17 17 17 17 17 17 17 17 17 17 17
23 22 21 21 21 20 19 18 18 18 18 18 18 18 18 18 18 18 19 18 18 19 18 18 18 18 18 18 17 17 17 17 17 17 17 17 17 17 17 16 16 16 16 16 16 16 16 16 16
23 21 21 20 20 20 19 19 18 18 18 18 18 18 18 18 18 18 19 19 18 18 18 18 18 18 18 17 17 17 17 17 16 16 16 16 16 16 16 16 16 15 15 16 16 16 16 16 16
22 21 21 21 20 20 20 19 18 18 18 17 17 17 18 18 18 18 18 18 18 18 18 18 18 18 17 17 17 17 17 16 16 16 16 16 16 15 15 15 15 15 15 15 15 15 15 15 15
21 21 21 21 20 20 19 19 18 18 18 17 17 17 17 17 17 17 18 18 18 18 18 18 18 18 17 17 17 17 16 16 16 16 15 15 15 15 15 15 15 15 15 15 14 14 15 15 15
21 21 21 21 20 20 19 18 17 17 17 17 17 17 17 17 17 17 17 18 18 18 18 18 18 18 17 17 17 17 16 16 16 15 15 15 15 15 14 14 14 14 14 14 14 14 14 14 14
22 22 21 21 20 20 19 18 17 17 17 17 16 17 17 17 17 17 17 17 17 17 17 18 18 18 17 17 17 17 16 16 16 15 15 15 14 14 14 14 14 14 14 14 14 14 14 14 14
22 21 21 20 20 20 18 18 17 17 16 17 17 17 17 17 17 17 17 17 17 17 18 18 18 18 18 17 17 17 16 16 16 15 15 15 14 14 14 14 14 13 13 13 13 13 13 13 14
22 21 21 21 20 18 19 18 18 17 17 17 17 17 17 18 18 17 17 17 17 17 18 18 18 18 18 17 17 17 16 16 16 15 15 15 14 14 14 13 13 13 13 13 13 13 13 13 13
22 22 22 20 19 17 18 18 18 17 17 17 17 17 17 18 18 18 18 18 18 18 18 18 18 18 18 17 17 17 17 16 16 15 15 14 14 14 14 13 13 13 13 13 13 13 13 13 13
22 20 19 19 18 17 17 17 17 17 17 17 17 17 18 18 18 18 18 18 18 18 18 18 18 18 18 18 17 17 17 16 16 15 15 15 14 14 14 13 13 13 13 12 12 12 12 12 12
20 19 18 16 16 18 18 17 18 17 17 18 17 18 18 18 19 19 18 18 18 18 18 18 18 18 18 18 17 17 17 16 16 16 15 15 14 14 14 13 13 13 12 12 12 12 12 12 12
20 19 18 19 17 18 17 17 17 18 18 18 18 18 19 19 19 19 19 19 19 19 19 19 18 18 18 18 18 17 17 16 16 16 15 15 15 15 14 14 13 13 12 12 12 12 12 12 12
20 20 19 20 19 18 17 18 18 19 20 20 20 20 19 19 20 20 20 20 20 19 19 19 19 19 19 18 18 17 17 16 16 16 16 15 15 15 14 14 13 13 13 12 12 12 12 12 11
20 19 18 17 18 18 18 18 19 20 19 19 19 19 20 20 20 20 20 20 20 20 20 20 20 19 19 19 18 18 17 17 16 16 16 16 16 15 15 14 14 13 13 12 12 12 12 11 11
21 18 16 17 18 19 19 19 19 20 20 19 18 19 20 21 21 21 21 21 21 21 21 20 20 20 20 19 19 18 17 17 17 16 16 16 16 16 15 15 14 14 13 13 12 12 12 12 11
21 19 16 15 16 18 19 19 19 19 19 19 19 21 22 22 22 22 22 22 22 21 21 21 21 20 20 19 19 18 18 17 17 17 17 17 16 16 16 15 15 14 14 13 13 13 12 12 12
22 20 17 19 18 16 17 18 19 18 18 19 20 21 22 23 23 23 23 22 22 22 22 21 21 21 20 20 20 19 18 18 18 18 17 17 17 17 16 16 15 15 14 14 13 13 13 12 12
Wind_Speed
7 4 1 1 3 4 1 1 1 2 1 1 3 4 3 1 1 2 1 7 13 12 14 17 17 17 17 18 18 17 17 16 15 15 14 13 12 12 11 10 10 9 9 9 9 9 9 8 9
5 3 0 2 4 2 2 2 3 2 3 3 3 3 4 3 2 3 4 7 12 12 14 15 17 17 17 17 17 17 16 15 14 13 13 12 11 10 10 9 8 8 8 8 8 8 8 8 8
4 1 3 3 3 3 2 3 4 4 4 4 3 2 3 2 2 3 6 12 11 10 12 15 18 17 17 17 16 16 15 14 13 12 12 11 10 9 8 8 7 7 7 7 6 7 7 7 7
3 3 4 4 1 3 4 4 7 7 2 2 4 3 2 1 3 7 14 14 12 8 11 15 17 17 17 16 16 15 14 13 12 12 11 10 9 8 7 7 7 6 5 5 6 6 6 6 5
3 4 4 3 3 3 2 4 9 7 4 3 4 3 2 2 8 14 14 14 12 9 11 15 18 17 17 16 15 15 14 13 12 11 10 9 8 7 7 6 6 5 5 5 5 5 5 4 4
4 4 4 2 4 3 2 1 5 5 4 4 4 3 2 5 11 13 13 11 10 9 9 14 17 17 17 16 15 14 13 12 11 10 9 8 7 6 6 6 6 5 5 5 5 4 4 4 3
4 4 2 3 3 3 1 1 1 4 5 4 4 4 2 5 9 11 11 10 8 8 8 9 13 15 15 15 14 13 12 11 10 9 8 7 6 6 6 6 6 6 6 5 5 5 5 4 3
4 4 0 3 3 3 2 1 1 2 3 2 2 4 5 7 9 11 11 9 8 6 6 7 9 11 12 12 13 12 11 10 9 7 6 5 5 4 5 5 6 7 7 7 6 6 6 5 4
4 4 2 5 5 4 5 3 2 1 2 1 1 1 4 13 13 13 12 10 8 7 5 5 7 9 10 10 10 10 9 8 7 5 4 3 2 1 1 3 6 7 8 8 7 7 7 6 5
4 3 7 5 4 5 7 5 5 3 2 2 2 1 9 14 15 15 15 14 11 9 7 5 6 7 8 8 8 9 8 9 8 8 7 6 5 4 3 3 2 4 5 6 6 7 7 5 3
6 7 5 4 2 4 7 5 5 5 4 5 6 8 13 13 13 13 13 12 11 10 8 6 6 6 6 6 8 8 9 9 8 8 8 7 7 6 6 5 5 4 2 1 1 3 3 3 3
5 5 4 3 0 4 6 6 4 4 3 1 5 10 12 13 12 11 11 10 8 8 7 6 6 5 6 7 7 7 7 7 7 7 7 7 6 6 6 5 5 5 3 2 1 0 1 1 2
4 3 0 1 3 4 5 4 2 1 1 3 7 10 10 10 9 8 8 8 7 8 7 6 7 6 6 7 6 6 6 7 7 7 7 8 6 4 4 5 6 6 5 3 2 1 1 0 0
3 1 0 1 2 2 5 2 1 2 3 6 8 8 7 8 7 7 8 8 7 7 7 6 7 7 7 5 5 6 7 8 8 7 7 7 7 5 5 5 5 6 6 5 3 3 2 1 1
0 1 2 0 2 2 5 1 2 2 4 6 7 7 6 6 7 8 9 8 8 8 7 7 8 7 7 7 6 7 8 8 6 6 7 7 8 7 6 5 4 5 6 6 6 5 4 3 2
2 3 3 3 2 3 4 3 2 3 5 5 5 5 4 4 6 6 7 7 7 8 7 7 8 8 8 6 6 7 7 7 6 6 6 7 8 8 7 5 4 6 7 6 4 3 3 3 3
4 3 4 4 2 3 3 3 1 2 4 4 4 4 5 5 6 6 7 6 6 7 7 6 7 8 8 6 6 6 6 5 5 5 5 6 7 7 8 5 5 6 6 5 4 4 3 3 3
5 5 5 4 1 3 2 2 1 2 3 4 4 4 5 6 7 7 7 7 6 6 7 7 7 7 7 6 5 4 4 2 3 3 4 5 5 6 7 5 5 5 4 4 4 4 4 2 2
5 4 6 3 0 2 2 2 2 3 3 4 4 5 6 6 5 6 7 7 7 6 7 8 8 7 7 4 4 4 3 2 1 2 3 4 4 5 5 4 4 4 4 3 3 2 4 4 3
5 4 4 1 2 2 1 2 2 3 4 5 6 7 7 6 6 7 7 7 8 8 8 8 8 8 7 5 4 3 3 2 2 1 2 3 4 4 4 4 3 3 3 4 4 3 2 3 4
3 5 4 2 2 4 3 4 1 2 2 3 5 5 6 8 9 10 9 9 9 9 9 9 9 8 7 6 4 4 4 3 2 1 1 3 4 4 4 5 4 3 3 3 3 3 3 2 3
4 3 3 4 4 3 3 3 4 2 3 4 6 6 7 7 7 8 9 10 11 10 9 8 8 7 6 7 6 6 5 4 4 3 3 2 4 4 5 5 5 4 2 2 2 2 2 2 2
2 5 6 5 4 3 4 1 6 1 4 7 8 9 8 8 9 10 11 11 10 10 9 8 7 7 6 7 7 6 4 3 2 2 2 2 2 3 5 6 5 4 3 2 2 2 2 1 1
7 6 7 6 5 3 2 1 6 4 6 6 8 9 9 9 9 9 9 9 8 8 8 8 8 7 7 7 7 7 7 6 5 4 4 3 2 2 5 6 6 5 4 3 3 3 2 2 2
5 6 5 6 5 4 2 2 8 7 6 8 10 11 10 10 10 10 9 10 10 10 10 9 9 9 8 8 8 8 8 8 8 6 6 5 3 3 5 5 5 4 5 5 4 3 3 2 2
4 7 6 4 4 5 3 4 7 5 4 5 7 8 9 10 10 11 12 11 11 11 11 10 10 10 9 9 9 8 8 6 6 7 6 6 5 5 5 6 6 6 6 5 4 3 3 3 3
6 3 5 6 2 2 5 7 8 2 2 5 7 8 10 11 12 12 12 11 11 12 12 12 11 10 10 10 9 8 8 8 8 7 6 5 5 4 5 6 6 6 6 5 4 4 4 3 4
5 8 6 5 3 2 6 5 5 5 5 6 8 9 11 10 11 11 11 12 12 12 11 10 11 12 11 10 10 9 9 9 8 7 7 7 6 5 6 6 7 6 6 5 5 5 5 5 5
4 5 5 5 5 5 3 7 5 7 6 8 10 10 11 12 13 13 12 12 11 10 10 10 11 11 10 11 11 10 10 9 8 8 9 8 7 7 7 7 7 7 7 6 6 7 6 6 6
3 6 7 4 3 4 4 7 5 4 5 6 7 8 9 11 11 11 11 10 10 11 11 12 12 12 13 12 11 11 10 9 10 10 9 8 8 8 8 7 7 8 8 7 7 8 7 8 8
Wind_Direction
163 148 123 39 57 50 354 251 154 134 109 122 121 106 104 48 264 271 58 130 132 138 152 157 153 147 141 135 131 129 128 128 128 129 129 130 131 132 132 130 129 126 122 117 114 112 110 107 105
142 153 43 55 79 60 292 184 147 149 158 137 93 82 73 57 41 103 123 133 134 138 147 156 154 149 144 138 135 133 133 132 132 133 134 135 136 137 137 136 134 131 127 123 120 118 115 110 104
155 178 81 69 92 171 218 192 166 131 123 128 105 79 93 122 150 144 148 136 125 131 143 156 153 149 146 142 139 138 137 137 139 141 142 144 145 146 146 145 144 141 138 133 128 124 120 115 106
133 57 56 67 263 233 210 195 167 150 133 124 139 117 117 108 150 145 141 137 130 127 141 152 152 151 149 145 143 142 143 144 146 148 150 152 154 156 157 159 157 154 153 148 140 135 129 122 111
68 76 53 14 285 268 260 197 169 163 161 145 137 122 124 63 118 135 139 140 138 133 141 151 152 151 149 147 147 147 148 149 150 153 157 160 164 168 171 175 174 172 171 169 163 155 147 138 121
65 69 74 314 286 283 342 28 148 144 144 144 137 130 134 130 135 141 140 137 138 136 136 148 152 151 149 149 149 150 151 152 153 157 161 165 170 178 184 189 192 194 195 195 188 182 175 165 144
109 101 159 246 272 275 214 39 128 144 152 169 149 138 145 150 147 139 131 124 125 124 124 132 144 148 149 150 151 152 152 153 155 159 164 171 181 192 201 207 212 213 213 214 213 208 203 198 190
136 103 309 262 242 246 165 99 81 127 159 141 149 164 185 168 141 129 123 120 121 116 117 121 127 134 141 149 151 151 151 152 155 160 168 178 192 206 222 228 232 232 227 224 225 226 224 219 215
108 76 253 233 218 219 161 156 159 76 120 183 228 226 161 142 137 133 134 136 141 139 124 121 123 128 135 141 146 143 140 138 132 125 124 111 74 38 307 272 250 241 238 233 233 238 238 232 226
114 171 237 227 216 187 173 177 168 154 183 215 210 173 132 143 148 150 155 157 160 161 157 141 131 130 132 132 119 111 104 101 99 97 93 85 71 47 24 355 313 261 249 242 240 248 250 240 224
175 208 246 262 239 166 161 163 161 161 209 224 193 161 148 152 157 159 163 165 166 164 165 158 143 138 132 121 116 109 104 101 97 94 94 89 75 59 45 36 23 17 10 340 249 245 255 234 211
194 250 244 283 358 145 154 148 161 195 223 236 164 156 154 156 162 164 165 163 158 159 165 158 146 137 130 121 119 117 111 105 97 95 97 91 76 60 50 45 39 38 41 52 63 63 276 262 235
214 265 274 85 72 103 112 123 156 213 35 108 134 146 154 157 160 160 158 156 156 161 162 161 150 138 131 122 123 120 116 112 109 102 93 93 88 72 61 50 46 43 50 58 60 66 79 33 299
233 220 202 68 86 113 123 112 101 229 121 121 135 147 147 144 147 155 158 164 167 164 161 158 150 142 135 127 126 130 128 124 115 106 100 97 95 88 75 58 45 39 43 56 70 80 87 64 36
29 30 354 334 128 136 117 98 246 187 126 131 137 144 140 142 146 163 170 172 169 167 160 155 151 138 133 131 135 138 135 130 122 117 110 102 97 90 83 69 52 38 48 63 66 66 69 62 48
31 37 323 269 161 160 151 234 222 158 144 148 146 144 139 142 149 156 163 163 164 156 153 158 154 140 135 134 136 138 138 137 131 126 115 104 97 93 84 72 54 47 57 61 65 55 59 47 40
19 324 286 298 166 144 163 236 220 162 155 157 152 151 152 146 147 155 158 161 157 153 150 152 143 141 137 130 127 130 135 134 132 128 118 108 100 93 86 76 60 59 61 53 63 57 61 44 18
269 277 277 279 245 146 179 241 204 182 184 179 166 170 169 168 171 165 161 158 152 152 150 150 143 139 130 117 107 103 105 110 125 133 130 120 110 102 93 81 64 66 66 55 59 67 54 45 3
237 246 269 279 91 133 206 249 232 198 209 200 186 187 191 182 161 157 160 163 156 160 160 163 152 150 141 135 137 136 155 163 163 175 158 142 128 117 102 91 74 68 70 62 66 79 55 32 5
221 250 266 324 46 83 7 298 246 207 218 210 198 199 204 178 163 165 169 172 174 179 176 170 165 164 165 156 147 145 142 152 164 168 173 179 160 146 124 116 103 89 84 66 54 68 75 30 22
229 207 229 196 68 44 21 342 281 247 224 215 208 198 197 186 174 172 179 184 182 187 187 182 180 173 169 152 123 101 84 75 93 170 207 210 191 176 152 143 127 109 99 89 67 66 87 71 26
268 254 159 115 89 350 20 315 293 249 237 221 211 204 203 196 182 182 186 187 193 196 190 183 180 176 171 161 159 155 161 176 199 194 199 205 198 193 179 164 148 131 117 112 89 80 83 100 57
153 68 83 88 101 33 18 17 296 285 237 233 216 208 207 199 195 196 193 193 196 192 186 185 180 183 178 173 172 163 166 177 165 165 192 205 214 212 195 180 168 156 152 151 131 113 102 102 115
123 78 60 54 64 8 322 58 289 243 222 215 208 204 201 196 196 196 192 186 193 190 185 183 185 196 186 180 177 178 178 174 169 187 200 208 218 228 205 189 184 179 175 176 171 157 145 145 137
84 85 24 359 6 275 278 250 256 251 225 200 195 198 196 194 193 193 192 192 196 195 194 189 192 204 194 188 190 191 188 183 190 195 200 199 207 217 211 192 189 191 195 193 183 177 183 178 173
169 139 157 216 244 286 318 261 259 262 238 197 187 185 189 195 195 199 201 201 203 202 199 195 199 207 197 197 200 195 189 189 199 201 196 201 207 215 206 196 200 205 202 200 192 197 207 199 200
140 157 153 131 139 317 294 288 303 254 195 186 186 185 195 202 202 204 203 203 205 205 204 201 202 207 203 203 198 196 195 197 203 203 202 206 212 217 206 201 204 210 210 207 197 214 223 211 217
128 138 101 115 142 278 304 292 266 255 215 198 195 202 207 203 206 210 209 208 209 209 209 202 203 209 207 202 201 205 201 202 201 195 203 208 212 210 202 208 212 216 217 212 208 223 227 222 230
110 98 102 110 145 158 262 280 245 237 222 208 209 209 207 203 206 210 212 211 209 208 205 204 207 208 206 205 204 201 201 199 196 202 209 207 206 205 208 211 212 217 222 219 216 228 228 230 239
157 162 150 152 204 171 185 267 294 266 250 225 227 225 218 212 210 211 211 207 205 207 208 208 208 209 211 205 200 203 200 194 200 210 213 207 208 210 212 211 213 220 224 221 220 232 233 231 239
Height
1514 1514 1515 1517 1519 1525 1526 1520 1515 1515 1515 1516 1515 1517 1519 1522 1525 1528 1523 1523 1528 1532 1536 1539 1543 1545 1546 1548 1549 1551 1552 1553 1554 1555 1555 1556 1557 1558 1558 1559 1559 1560 1560 1560 1560 1561 1561 1561 1561
1514 1515 1517 1517 1522 1533 1527 1517 1516 1514 1514 1514 1514 1515 1517 1519 1521 1522 1521 1524 1529 1533 1537 1540 1543 1546 1547 1549 1550 1552 1553 1554 1555 1556 1557 1558 1558 1559 1559 1560 1561 1561 1561 1562 1562 1562 1562 1563 1563
1514 1516 1517 1518 1524 1529 1523 1514 1513 1512 1512 1512 1514 1515 1518 1519 1520 1521 1522 1525 1530 1534 1537 1541 1544 1547 1549 1550 1551 1553 1554 1555 1556 1557 1558 1559 1559 1560 1560 1561 1562 1562 1563 1563 1563 1563 1564 1564 1565
1515 1517 1518 1522 1524 1519 1514 1511 1510 1511 1511 1511 1512 1515 1516 1518 1519 1520 1522 1526 1530 1534 1538 1541 1544 1547 1549 1551 1552 1554 1555 1556 1557 1558 1559 1559 1560 1561 1561 1562 1562 1563 1564 1564 1564 1565 1565 1566 1566
1516 1517 1522 1527 1522 1515 1509 1507 1508 1509 1510 1511 1511 1514 1516 1517 1519 1521 1523 1526 1530 1534 1538 1542 1545 1547 1550 1552 1553 1555 1556 1557 1558 1559 1560 1560 1561 1561 1562 1562 1563 1564 1564 1565 1565 1566 1566 1567 1567
1516 1518 1529 1531 1522 1512 1509 1508 1508 1508 1510 1511 1511 1513 1515 1516 1518 1521 1524 1527 1532 1535 1539 1542 1545 1548 1550 1552 1553 1555 1556 1558 1558 1559 1560 1561 1561 1561 1562 1563 1563 1564 1565 1565 1566 1567 1567 1568 1568
1518 1521 1527 1524 1521 1514 1510 1509 1509 1509 1510 1511 1511 1513 1515 1515 1518 1521 1524 1528 1533 1537 1539 1542 1545 1548 1551 1552 1554 1556 1557 1558 1559 1560 1560 1561 1561 1562 1562 1563 1563 1564 1565 1565 1566 1567 1568 1568 1569
1517 1521 1524 1524 1519 1514 1510 1510 1510 1511 1511 1511 1512 1514 1514 1515 1518 1521 1525 1529 1534 1537 1540 1543 1545 1548 1550 1552 1554 1556 1557 1558 1559 1559 1560 1561 1561 1561 1562 1562 1563 1564 1564 1565 1566 1567 1568 1569 1569
1516 1524 1527 1520 1515 1510 1509 1510 1511 1511 1511 1511 1511 1512 1512 1515 1518 1522 1525 1530 1534 1537 1540 1543 1545 1548 1550 1552 1554 1556 1557 1558 1558 1559 1559 1560 1560 1561 1561 1562 1562 1563 1563 1564 1565 1566 1567 1568 1569
1516 1525 1518 1509 1506 1506 1507 1508 1509 1511 1511 1511 1511 1511 1513 1515 1518 1522 1525 1528 1532 1536 1539 1542 1545 1548 1550 1552 1554 1555 1557 1557 1558 1559 1559 1559 1560 1560 1560 1561 1561 1562 1562 1563 1564 1565 1566 1567 1568
1512 1515 1508 1505 1503 1503 1505 1507 1509 1510 1511 1508 1508 1510 1512 1515 1519 1522 1525 1528 1532 1536 1539 1542 1546 1548 1550 1552 1554 1555 1556 1557 1558 1558 1559 1559 1559 1559 1559 1559 1560 1560 1561 1562 1563 1564 1565 1565 1566
1511 1507 1506 1504 1503 1503 1505 1507 1509 1509 1508 1507 1508 1510 1512 1515 1518 1521 1525 1528 1532 1536 1539 1543 1546 1548 1550 1552 1554 1555 1557 1557 1558 1558 1558 1558 1557 1557 1557 1558 1558 1559 1559 1560 1561 1562 1563 1564 1565
1508 1506 1504 1504 1503 1504 1506 1507 1508 1508 1507 1507 1508 1511 1513 1515 1518 1522 1526 1529 1532 1536 1539 1543 1545 1548 1550 1552 1554 1555 1556 1557 1558 1558 1557 1557 1556 1556 1556 1556 1556 1557 1558 1559 1559 1560 1561 1562 1563
1505 1504 1504 1504 1504 1505 1506 1508 1508 1507 1507 1507 1508 1511 1513 1516 1518 1522 1526 1529 1532 1536 1539 1542 1546 1548 1550 1552 1554 1555 1556 1557 1557 1557 1557 1556 1555 1555 1554 1554 1555 1556 1556 1557 1558 1559 1559 1560 1561
1505 1506 1505 1504 1504 1506 1507 1510 1508 1507 1507 1508 1509 1511 1513 1516 1519 1522 1525 1529 1532 1535 1539 1542 1545 1547 1550 1552 1554 1555 1556 1557 1557 1557 1556 1555 1555 1554 1554 1554 1554 1555 1555 1556 1557 1557 1558 1559 1559
1506 1509 1513 1506 1505 1506 1510 1514 1508 1507 1507 1508 1509 1512 1514 1516 1519 1522 1526 1530 1533 1535 1539 1542 1544 1547 1549 1552 1553 1555 1556 1557 1557 1557 1556 1555 1555 1554 1554 1553 1554 1554 1554 1555 1556 1556 1557 1557 1558
1513 1517 1514 1508 1505 1505 1509 1511 1508 1507 1507 1508 1509 1512 1514 1516 1519 1522 1525 1529 1532 1535 1538 1541 1544 1546 1549 1551 1553 1555 1556 1557 1557 1557 1556 1556 1555 1554 1554 1553 1553 1553 1553 1554 1554 1555 1555 1556 1556
1518 1516 1513 1511 1505 1506 1509 1509 1507 1507 1507 1508 1510 1512 1514 1516 1519 1521 1525 1528 1532 1535 1538 1541 1543 1546 1548 1551 1553 1554 1556 1556 1556 1557 1556 1556 1555 1554 1554 1553 1553 1552 1553 1553 1553 1553 1554 1554 1555
1507 1510 1512 1509 1504 1507 1509 1509 1508 1507 1508 1508 1509 1510 1512 1515 1519 1522 1525 1529 1532 1535 1538 1540 1543 1545 1548 1550 1552 1553 1555 1555 1556 1556 1556 1556 1555 1555 1554 1553 1553 1552 1552 1552 1552 1552 1552 1553 1553
1505 1510 1510 1508 1505 1507 1511 1510 1508 1507 1508 1508 1508 1510 1511 1514 1517 1521 1524 1528 1531 1534 1537 1540 1542 1545 1547 1550 1552 1553 1554 1555 1556 1556 1556 1556 1556 1555 1554 1554 1553 1552 1552 1552 1552 1551 1551 1551 1551
1504 1508 1507 1509 1509 1510 1512 1514 1510 1507 1508 1508 1509 1509 1511 1512 1515 1518 1523 1526 1530 1533 1536 1539 1542 1545 1547 1549 1551 1552 1553 1554 1555 1555 1555 1556 1555 1555 1555 1554 1553 1553 1552 1552 1551 1551 1551 1551 1550
1507 1500 1501 1507 1515 1523 1519 1528 1513 1509 1508 1507 1507 1508 1509 1511 1514 1517 1521 1525 1528 1532 1535 1538 1541 1544 1546 1548 1550 1551 1552 1553 1554 1554 1555 1555 1555 1555 1554 1554 1553 1553 1552 1551 1551 1551 1550 1550 1550
1501 1501 1504 1510 1517 1524 1523 1527 1520 1510 1509 1506 1505 1506 1508 1510 1513 1515 1518 1523 1527 1531 1534 1537 1540 1543 1545 1547 1549 1550 1551 1552 1552 1553 1553 1553 1554 1554 1553 1553 1553 1553 1552 1551 1551 1550 1550 1550 1550
1499 1505 1511 1519 1525 1533 1526 1529 1523 1512 1505 1502 1502 1504 1506 1509 1511 1514 1517 1522 1526 1530 1533 1536 1539 1541 1544 1546 1547 1549 1550 1551 1551 1551 1552 1552 1552 1552 1552 1552 1552 1552 1552 1551 1550 1550 1549 1549 1549
1501 1515 1532 1533 1540 1536 1524 1526 1520 1500 1497 1497 1498 1501 1504 1507 1510 1514 1517 1520 1524 1527 1531 1534 1536 1539 1541 1544 1545 1547 1548 1549 1549 1550 1550 1550 1550 1550 1550 1551 1551 1551 1551 1550 1550 1549 1549 1548 1548
1503 1510 1530 1538 1541 1535 1525 1525 1508 1494 1493 1494 1496 1499 1502 1505 1509 1512 1515 1518 1521 1525 1528 1531 1533 1536 1539 1541 1543 1545 1546 1547 1547 1548 1548 1548 1548 1548 1549 1549 1549 1549 1549 1549 1548 1548 1548 1548 1547
1503 1509 1511 1527 1532 1536 1528 1517 1501 1491 1492 1493 1495 1498 1500 1503 1506 1509 1512 1516 1519 1522 1525 1528 1531 1533 1536 1538 1541 1542 1543 1544 1545 1546 1546 1546 1546 1546 1546 1546 1546 1547 1547 1547 1546 1546 1546 1546 1546
1494 1505 1518 1528 1537 1538 1527 1520 1513 1496 1493 1492 1493 1495 1496 1500 1503 1506 1509 1512 1516 1519 1523 1526 1528 1531 1533 1536 1538 1539 1541 1542 1543 1543 1543 1543 1544 1544 1544 1544 1544 1544 1544 1544 1544 1544 1544 1544 1544
1499 1506 1516 1528 1529 1538 1537 1524 1498 1493 1490 1490 1490 1491 1493 1496 1499 1503 1506 1509 1513 1516 1520 1522 1525 1527 1529 1532 1534 1536 1537 1539 1540 1540 1540 1541 1541 1541 1541 1541 1541 1541 1541 1541 1541 1541 1541 1541 1541
1492 1498 1511 1520 1525 1531 1534 1523 1491 1489 1487 1487 1488 1489 1491 1493 1496 1500 1503 1506 1509 1512 1515 1518 1520 1523 1525 1527 1530 1531 1533 1535 1535 1536 1537 1538 1538 1538 1538 1538 1538 1538 1538 1538 1538 1538 1537 1537 1537